Location: Invercargill
(46.4000°S, 168.3500°E)
Time: 14:30:03
(UTC+12:00)

deb Explorer IX - All Passes

Search period start: 18 July 2019 00:00
Search period end: 28 July 2019 00:00
Orbit: 539 x 1112 km, 38.8° (Epoch: 17 July)

Date Brightness Start Highest point End Pass type
(mag) Time Alt. Az. Time Alt. Az. Time Alt. Az.
18 Jul - 14:57:20 10° N 15:02:21 20° NNE 15:07:27 10° ENE daylight
18 Jul - 16:42:05 10° NW 16:48:49 39° NNE 16:55:28 10° E daylight
18 Jul - 18:28:43 10° WNW 18:35:45 46° N 18:42:20 10° ENE visible
18 Jul - 20:16:11 10° W 20:22:28 33° NNW 20:28:13 10° NE visible
18 Jul - 22:05:39 10° WNW 22:08:27 13° NW 22:11:08 10° NNW visible
19 Jul - 14:35:17 10° NNW 14:40:17 20° NNE 14:45:25 10° ENE daylight
19 Jul - 16:20:01 10° NW 16:26:45 40° NNE 16:33:28 10° E daylight
19 Jul - 18:06:38 10° WNW 18:13:40 47° N 18:20:22 10° ENE visible
19 Jul - 19:54:03 10° W 20:00:25 33° NNW 20:06:17 10° NE visible
19 Jul - 21:43:29 10° WNW 21:46:26 13° NW 21:49:15 10° NNW visible
20 Jul - 14:13:15 10° NNW 14:18:12 21° NNE 14:23:21 10° ENE daylight
20 Jul - 15:57:59 10° NW 16:04:39 40° NNE 16:11:25 10° E daylight
20 Jul - 17:44:33 10° WNW 17:51:34 47° N 17:58:23 10° ENE visible
20 Jul - 19:31:56 10° W 19:38:21 33° NNW 19:44:21 10° NE visible
20 Jul - 21:21:20 10° WNW 21:24:24 13° NW 21:27:20 10° NNW visible
21 Jul - 13:51:15 10° NNW 13:56:08 21° NNE 14:01:15 10° ENE daylight
21 Jul - 15:35:57 10° NW 15:42:33 40° NNE 15:49:21 10° E daylight
21 Jul - 17:22:29 10° WNW 17:29:29 47° N 17:36:22 10° ENE daylight
21 Jul - 19:09:50 10° W 19:16:17 33° NNW 19:22:22 10° NE visible
21 Jul - 20:59:12 10° WNW 21:02:21 13° NW 21:05:24 10° NNW visible
22 Jul - 13:29:16 10° NNW 13:34:04 20° NNE 13:39:08 10° ENE daylight
22 Jul - 15:13:56 10° NW 15:20:28 40° NNE 15:27:17 10° E daylight
22 Jul - 17:00:26 10° WNW 17:07:23 47° N 17:14:20 10° ENE daylight
22 Jul - 18:47:45 10° W 18:54:11 33° NNW 19:00:22 10° NE visible
22 Jul - 20:37:05 10° WNW 20:40:18 13° NW 20:43:25 10° NNW visible
23 Jul - 13:07:18 10° NNW 13:12:01 20° NNE 13:17:01 10° ENE daylight
23 Jul - 14:51:58 10° NW 14:58:22 40° NNE 15:05:11 10° E daylight
23 Jul - 16:38:24 10° WNW 16:45:17 47° N 16:52:17 10° ENE daylight
23 Jul - 18:25:40 10° W 18:32:06 33° NNW 18:38:21 10° NE visible
23 Jul - 20:14:58 10° WNW 20:18:14 13° NW 20:21:24 10° NNW visible
24 Jul - 12:45:22 10° NNW 12:49:57 20° NNE 12:54:53 10° ENE daylight
24 Jul - 14:30:00 10° NW 14:36:17 40° NNE 14:43:04 10° E daylight
24 Jul - 16:16:23 10° WNW 16:23:11 47° N 16:30:13 10° ENE daylight
24 Jul - 18:03:36 10° W 18:10:01 32° NNW 18:16:18 10° NE visible
24 Jul - 19:52:54 10° WNW 19:56:09 13° NW 19:59:21 10° NNW visible
25 Jul - 12:23:27 10° NNW 12:27:54 20° NNE 12:32:45 10° ENE daylight
25 Jul - 14:08:03 10° NW 14:14:13 40° NNE 14:20:57 10° E daylight
25 Jul - 15:54:23 10° WNW 16:01:06 46° N 16:08:07 10° ENE daylight
25 Jul - 17:41:34 10° W 17:47:54 32° NNW 17:54:14 10° NE daylight
25 Jul - 19:30:52 10° WNW 19:34:05 13° NW 19:37:15 10° NNW visible
26 Jul - 12:01:33 10° N 12:05:52 20° NNE 12:10:35 10° ENE daylight
26 Jul - 13:46:07 10° NW 13:52:09 39° NNE 13:58:48 10° E daylight
26 Jul - 15:32:25 10° WNW 15:39:00 46° N 15:46:00 10° ENE daylight
26 Jul - 17:19:32 10° W 17:25:48 32° NNW 17:32:09 10° NE daylight
26 Jul - 19:08:51 10° WNW 19:12:00 13° NW 19:15:08 10° NNW visible
27 Jul - 11:39:40 10° N 11:43:51 19° NNE 11:48:24 10° ENE daylight
27 Jul - 13:24:12 10° NW 13:30:05 39° NNE 13:36:39 10° E daylight
27 Jul - 15:10:27 10° WNW 15:16:55 45° N 15:23:52 10° ENE daylight
27 Jul - 16:57:33 10° W 17:03:42 31° NNW 17:10:02 10° NE daylight
27 Jul - 18:46:53 10° WNW 18:49:55 13° NW 18:52:57 10° NNW visible
